Weather History for KFVE - October, 2010

Change the Weather History Date:

Friday, October 1, 2010

  Actual Average Record
Temperature  
Mean Temperature 62 °F 47 °F  
Max Temperature 71 °F 56 °F 72 °F (2013)
Min Temperature 52 °F 39 °F 34 °F (1997)
Degree Days  
Heating Degree Days 3    
Month to date heating degree days 3  
Since 1 July heating degree days 427  
Cooling Degree Days 0    
Month to date cooling degree days 0  
Year to date cooling degree days 268  
Growing Degree Days 10 (Base 50)    
Moisture  
Dew Point 56 °F    
Average Humidity 97    
Maximum Humidity 100    
Minimum Humidity 83    
Precipitation  
Precipitation 1.05 in 0.08 in 1.05 in (2010)
Month to date precipitation 1.05 0.08  
Year to date precipitation 27.64 25.66  
Sea Level Pressure  
Sea Level Pressure 29.64 in    
Wind  
Wind Speed 11 mph (NW)    
Max Wind Speed 28 mph    
Max Gust Speed 40 mph    
Visibility 4 miles    
Events Rain    
T = Trace of Precipitation, MM = Missing Value Source: NWS Daily Summary

Daily Weather History Graph

Daily Weather History Graph

Search for Another Location

Airport or City:

Trip Planner

Search our weather history database for the weather conditions in past years. The results will help you decide how hot, cold, wet, or windy it might be!

Date:

Astronomy

Oct. 01, 2010 Rise Set
Actual Time 6:32 AM EDT 6:12 PM EDT
Civil Twilight 6:01 AM EDT 6:43 PM EDT
Nautical Twilight 5:25 AM EDT 7:18 PM EDT
Astronomical Twilight 4:49 AM EDT 7:54 PM EDT
Moon 11:47 PM EDT (10/1) 2:42 PM EDT (10/1)
Length of Visible Light 12h 41m
Length of Day
11h 40m
Last Quarter, 44% of the Moon is Illuminated
Oct 1
Last Quarter
Oct 7
New
Oct 14
First Quarter
Oct 22
Full
Oct 30
Last Quarter

Hourly Weather History & Observations

Time (EDT) Temp. Dew Point Humidity Pressure Visibility Wind Dir Wind Speed Gust Speed Precip Events Conditions
12:29 AM 68.0 °F 66.2 °F 94% 29.61 in 9.0 mi South 24.2 mph 35.7 mph N/A   Overcast
12:53 AM 69.1 °F 64.9 °F 87% 29.58 in 9.0 mi South 18.4 mph 34.5 mph N/A   Overcast
1:53 AM 69.1 °F 64.9 °F 87% 29.56 in 10.0 mi South 20.7 mph 36.8 mph N/A   Overcast
2:35 AM 69.8 °F 64.4 °F 83% 29.55 in 10.0 mi South 23.0 mph 34.5 mph N/A   Overcast
2:53 AM 70.0 °F 64.9 °F 84% 29.54 in 10.0 mi South 26.5 mph 38.0 mph N/A   Overcast
3:08 AM 69.8 °F 64.4 °F 83% 29.55 in 10.0 mi South 18.4 mph 35.7 mph N/A   Overcast
3:53 AM 69.1 °F 66.0 °F 90% 29.52 in 8.0 mi South 19.6 mph 31.1 mph 0.01 in Rain Light Rain
4:03 AM 68.0 °F 66.2 °F 94% 29.54 in 9.0 mi South 18.4 mph 31.1 mph 0.00 in Rain Light Rain
4:53 AM 69.1 °F 64.9 °F 87% 29.52 in 8.0 mi South 16.1 mph 26.5 mph 0.00 in Rain Light Rain
5:17 AM 66.2 °F 66.2 °F 100% 29.55 in 2.5 mi SW 12.7 mph 25.3 mph 0.02 in Rain Rain
5:21 AM 66.2 °F 66.2 °F 100% 29.56 in 1.5 mi WSW 12.7 mph - 0.05 in Rain Heavy Rain
5:23 AM 66.2 °F 66.2 °F 100% 29.56 in 1.2 mi WSW 16.1 mph 21.9 mph 0.08 in Rain Heavy Rain
5:33 AM 66.2 °F 66.2 °F 100% 29.56 in 1.5 mi SW 16.1 mph 29.9 mph 0.14 in Rain Rain
5:35 AM 66.2 °F 64.4 °F 94% 29.56 in 2.0 mi SW 13.8 mph 29.9 mph 0.14 in Rain Rain
5:43 AM 66.2 °F 64.4 °F 94% 29.57 in 4.0 mi WSW 9.2 mph 20.7 mph 0.15 in Rain Light Rain
5:53 AM 64.0 °F 63.0 °F 96% 29.57 in 3.0 mi NW 16.1 mph 26.5 mph 0.17 in Rain Rain
5:59 AM 62.6 °F 60.8 °F 94% 29.59 in 3.0 mi NW 11.5 mph - 0.01 in Rain Light Rain
6:15 AM 57.2 °F 57.2 °F 100% 29.61 in 3.0 mi NW 13.8 mph - 0.03 in Rain Light Rain
6:22 AM 57.2 °F 55.4 °F 94% 29.62 in 2.5 mi NW 15.0 mph - 0.05 in Rain Rain
6:29 AM 55.4 °F 55.4 °F 100% 29.62 in 2.5 mi NW 16.1 mph - 0.06 in Rain Rain
6:38 AM 55.4 °F 53.6 °F 94% 29.63 in 4.0 mi NNW 17.3 mph 25.3 mph 0.07 in Rain Light Rain
6:50 AM 55.4 °F 53.6 °F 94% 29.62 in 5.0 mi NNW 16.1 mph - 0.08 in Rain Light Rain
6:53 AM 55.0 °F 54.0 °F 96% 29.62 in 7.0 mi NNW 16.1 mph - 0.08 in Rain Light Rain
7:14 AM 55.4 °F 53.6 °F 94% 29.66 in 10.0 mi NW 9.2 mph - 0.00 in Rain Light Rain
7:51 AM 55.4 °F 55.4 °F 100% 29.68 in 2.0 mi WNW 5.8 mph - 0.03 in Rain Light Rain
7:53 AM 55.9 °F 55.0 °F 97% 29.68 in 2.5 mi WNW 6.9 mph - 0.03 in Rain Light Rain
8:05 AM 55.4 °F 55.4 °F 100% 29.69 in 2.5 mi West 3.5 mph - 0.01 in Rain Light Rain
8:13 AM 55.4 °F 55.4 °F 100% 29.70 in 1.8 mi WSW 4.6 mph - 0.02 in Rain Light Rain
8:17 AM 55.4 °F 55.4 °F 100% 29.70 in 1.5 mi West 5.8 mph - 0.03 in Rain Light Rain
8:25 AM 55.4 °F 55.4 °F 100% 29.71 in 2.0 mi West 5.8 mph - 0.04 in Rain Light Rain
8:44 AM 55.4 °F 55.4 °F 100% 29.70 in 4.0 mi WNW 5.8 mph - 0.05 in Rain Light Rain
8:53 AM 55.9 °F 55.9 °F 100% 29.72 in 4.0 mi West 5.8 mph - 0.05 in Rain Light Rain
9:02 AM 57.2 °F 55.4 °F 94% 29.72 in 7.0 mi NW 4.6 mph - 0.00 in   Overcast
9:12 AM 55.4 °F 55.4 °F 100% 29.72 in 4.0 mi WNW 6.9 mph - 0.01 in Rain Light Rain
9:30 AM 55.4 °F 55.4 °F 100% 29.73 in 4.0 mi WNW 8.1 mph - 0.01 in Rain Light Rain
9:53 AM 57.0 °F 55.9 °F 96% 29.69 in 7.0 mi NNW 8.1 mph - 0.01 in   Overcast
10:04 AM 57.2 °F 55.4 °F 94% 29.70 in 8.0 mi NW 5.8 mph - N/A   Overcast
10:25 AM 57.2 °F 55.4 °F 94% 29.71 in 10.0 mi NW 6.9 mph - N/A   Overcast
10:43 AM 57.2 °F 55.4 °F 94% 29.70 in 3.0 mi NNW 8.1 mph - 0.01 in Rain Light Rain
10:53 AM 57.0 °F 55.9 °F 96% 29.70 in 2.5 mi NW 6.9 mph - 0.02 in Rain Light Rain
11:07 AM 57.2 °F 55.4 °F 94% 29.70 in 2.5 mi NNW 5.8 mph - 0.01 in Rain Light Rain
11:12 AM 57.2 °F 55.4 °F 94% 29.70 in 2.5 mi North 4.6 mph - 0.02 in Rain Light Rain
11:18 AM 57.2 °F 55.4 °F 94% 29.70 in 4.0 mi North 4.6 mph - 0.02 in Rain Light Rain
11:30 AM 57.2 °F 55.4 °F 94% 29.69 in 4.0 mi NNE 3.5 mph - 0.02 in Rain Light Rain
11:53 AM 57.0 °F 55.9 °F 96% 29.68 in 4.0 mi North 5.8 mph - 0.03 in Rain Light Rain
12:15 PM 57.2 °F 55.4 °F 94% 29.70 in 3.0 mi NNW 9.2 mph - 0.01 in Rain Rain
12:19 PM 57.2 °F 55.4 °F 94% 29.69 in 1.8 mi NNW 10.4 mph - 0.03 in Rain Rain
12:22 PM 57.2 °F 55.4 °F 94% 29.70 in 1.2 mi NW 10.4 mph - 0.04 in Rain Heavy Rain
12:27 PM 55.4 °F 55.4 °F 100% 29.68 in 1.5 mi NNW 9.2 mph - 0.05 in Rain Rain
12:30 PM 55.4 °F 55.4 °F 100% 29.68 in 2.0 mi North 8.1 mph - 0.05 in Rain Light Rain
12:36 PM 55.4 °F 55.4 °F 100% 29.68 in 4.0 mi NNW 11.5 mph - 0.05 in Rain Light Rain
12:43 PM 55.4 °F 55.4 °F 100% 29.70 in 2.5 mi NW 9.2 mph - 0.06 in Rain Rain
12:49 PM 55.4 °F 55.4 °F 100% 29.70 in 1.5 mi NNW 4.6 mph - 0.08 in Rain Rain
12:53 PM 55.9 °F 55.0 °F 97% 29.69 in 1.5 mi North 5.8 mph - 0.08 in Rain Rain
12:59 PM 55.4 °F 55.4 °F 100% 29.69 in 2.0 mi North 9.2 mph - 0.01 in Rain Light Rain
1:08 PM 55.4 °F 55.4 °F 100% 29.67 in 3.0 mi North 11.5 mph - 0.02 in Rain Light Rain
1:44 PM 55.4 °F 55.4 °F 100% 29.66 in 2.5 mi North 8.1 mph - 0.03 in Rain Light Rain
1:48 PM 55.4 °F 55.4 °F 100% 29.66 in 1.5 mi North 10.4 mph - 0.05 in Rain Heavy Rain
1:53 PM 55.9 °F 55.0 °F 97% 29.65 in 1.5 mi North 10.4 mph - 0.06 in Rain Rain
1:56 PM 55.4 °F 55.4 °F 100% 29.66 in 2.0 mi North 5.8 mph - 0.00 in Rain Light Rain
2:11 PM 55.4 °F 55.4 °F 100% 29.65 in 4.0 mi North 8.1 mph - 0.00 in Rain Light Rain
2:24 PM 55.4 °F 55.4 °F 100% 29.64 in 2.0 mi NNE 5.8 mph - 0.02 in Rain Rain
2:29 PM 55.4 °F 55.4 °F 100% 29.64 in 1.5 mi North 6.9 mph - 0.03 in Rain Rain
2:32 PM 55.4 °F 55.4 °F 100% 29.64 in 1.2 mi North 8.1 mph - 0.04 in Rain Heavy Rain
2:41 PM 55.4 °F 55.4 °F 100% 29.64 in 1.8 mi North 6.9 mph - 0.06 in Rain Rain
2:47 PM 55.4 °F 55.4 °F 100% 29.63 in 1.2 mi NNE 6.9 mph - 0.08 in Rain Heavy Rain
2:53 PM 55.9 °F 55.0 °F 97% 29.62 in 1.5 mi North 6.9 mph - 0.09 in Rain Rain
2:59 PM 55.4 °F 55.4 °F 100% 29.63 in 2.0 mi NNE 8.1 mph - 0.00 in Rain Light Rain
3:08 PM 55.4 °F 55.4 °F 100% 29.62 in 2.5 mi North 8.1 mph - 0.02 in Rain Light Rain
3:15 PM 55.4 °F 55.4 °F 100% 29.62 in 1.5 mi NNE 8.1 mph - 0.06 in Rain Heavy Rain
3:17 PM 55.4 °F 55.4 °F 100% 29.62 in 1.2 mi NNE 9.2 mph - 0.07 in Rain Heavy Rain
3:27 PM 55.4 °F 55.4 °F 100% 29.63 in 1.5 mi North 6.9 mph - 0.10 in Rain Rain
3:30 PM 55.4 °F 55.4 °F 100% 29.63 in 2.0 mi North 6.9 mph - 0.10 in Rain Rain
3:39 PM 55.4 °F 55.4 °F 100% 29.63 in 2.0 mi North 5.8 mph - 0.12 in Rain Rain
3:47 PM 55.4 °F 55.4 °F 100% 29.64 in 3.0 mi NNW 6.9 mph - 0.12 in Rain Light Rain
3:53 PM 55.9 °F 55.0 °F 97% 29.63 in 4.0 mi NNW 6.9 mph - 0.12 in Rain Light Rain
4:22 PM 55.4 °F 55.4 °F 100% 29.62 in 4.0 mi North 6.9 mph - 0.02 in Rain Light Rain
4:36 PM 55.4 °F 55.4 °F 100% 29.63 in 4.0 mi NNW 8.1 mph - 0.02 in Rain Light Rain
4:43 PM 55.4 °F 55.4 °F 100% 29.64 in 2.5 mi NW 8.1 mph - 0.03 in Rain Light Rain
4:53 PM 55.9 °F 55.0 °F 97% 29.64 in 2.5 mi NW 10.4 mph - 0.04 in Rain Light Rain
5:18 PM 55.4 °F 55.4 °F 100% 29.65 in 2.5 mi NNW 12.7 mph - 0.01 in Rain Light Rain
5:22 PM 55.4 °F 53.6 °F 94% 29.65 in 3.0 mi NW 11.5 mph - 0.01 in Rain Light Rain
5:31 PM 55.4 °F 53.6 °F 94% 29.65 in 5.0 mi NNW 12.7 mph - 0.01 in Rain Light Rain
5:53 PM 55.0 °F 54.0 °F 96% 29.63 in 3.0 mi NNW 13.8 mph - 0.02 in Rain Light Rain
6:53 PM 55.0 °F 54.0 °F 96% 29.62 in 4.0 mi North 9.2 mph - 0.04 in Rain Rain
7:09 PM 55.4 °F 53.6 °F 94% 29.62 in 5.0 mi North 8.1 mph - 0.02 in Rain Light Rain
7:27 PM 55.4 °F 53.6 °F 94% 29.64 in 6.0 mi NNW 11.5 mph - 0.03 in Rain Light Rain
7:34 PM 55.4 °F 53.6 °F 94% 29.64 in 5.0 mi NNW 10.4 mph - 0.04 in Rain Rain
7:53 PM 54.0 °F 54.0 °F 100% 29.64 in 5.0 mi NNW 10.4 mph - 0.05 in Rain Rain
8:10 PM 53.6 °F 53.6 °F 100% 29.64 in 6.0 mi NNW 10.4 mph - 0.02 in Rain Light Rain
8:17 PM 53.6 °F 53.6 °F 100% 29.65 in 6.0 mi NW 10.4 mph - 0.02 in Rain Light Rain
8:53 PM 54.0 °F 53.1 °F 97% 29.65 in 5.0 mi NNW 9.2 mph - 0.05 in Rain Light Rain
9:16 PM 53.6 °F 53.6 °F 100% 29.65 in 4.0 mi NNW 6.9 mph - 0.02 in Rain Light Rain
9:26 PM 53.6 °F 53.6 °F 100% 29.65 in 5.0 mi NW 9.2 mph - 0.03 in Rain Light Rain
9:48 PM 53.6 °F 53.6 °F 100% 29.66 in 5.0 mi WNW 10.4 mph - 0.05 in Rain Light Rain
9:53 PM 54.0 °F 53.1 °F 97% 29.66 in 5.0 mi NW 9.2 mph - 0.06 in Rain Light Rain
10:00 PM 53.6 °F 53.6 °F 100% 29.66 in 4.0 mi NW 11.5 mph - 0.01 in Rain Rain
10:23 PM 53.6 °F 51.8 °F 94% 29.67 in 7.0 mi WNW 8.1 mph - 0.03 in Rain Light Rain
10:39 PM 53.6 °F 51.8 °F 94% 29.65 in 7.0 mi NNW 6.9 mph - 0.03 in Rain Light Rain
10:53 PM 53.1 °F 52.0 °F 96% 29.64 in 7.0 mi NNW 8.1 mph - 0.04 in Rain Light Rain
11:41 PM 53.6 °F 51.8 °F 94% 29.63 in 9.0 mi NW 8.1 mph - 0.00 in   Overcast
11:51 PM 51.8 °F 51.8 °F 100% 29.62 in 9.0 mi NNW 6.9 mph - 0.00 in   Overcast
11:53 PM 52.0 °F 52.0 °F 100% 29.62 in 9.0 mi NNW 8.1 mph - 0.00 in   Overcast